This is the latest recevied weather packets stored in our database for station/object CE4JVU-10. If no packets are shown the sender has not sent any weather packets the latest 1 day(s).
| Time | Temp. | Humidity | Pressure | Rain* | Wind** | Luminosity | Snow |
|---|---|---|---|---|---|---|---|
| 1777910115 | 16.11° C | 52% | 981.6 hPa | - | - | - | - |
| 1777908315 | 16.67° C | 50% | 981.5 hPa | - | - | - | - |
| 1777906515 | 16.67° C | 52% | 981.7 hPa | - | - | - | - |
| 1777904714 | 16.67° C | 53% | 981.8 hPa | - | - | - | - |
| 1777902914 | 16.67° C | 53% | 981.3 hPa | - | - | - | - |
| 1777901113 | 16.11° C | 54% | 980.9 hPa | - | - | - | - |
| 1777899313 | 16.67° C | 52% | 981 hPa | - | - | - | - |
| 1777897513 | 17.78° C | 54% | 981.1 hPa | - | - | - | - |
| 1777895713 | 17.22° C | 55% | 981.1 hPa | - | - | - | - |
| 1777893913 | 17.22° C | 55% | 980.8 hPa | - | - | - | - |
| 1777892113 | 17.78° C | 52% | 980.7 hPa | - | - | - | - |
| 1777890314 | 17.22° C | 52% | 980.4 hPa | - | - | - | - |
| 1777888514 | 17.22° C | 52% | 980.4 hPa | - | - | - | - |
| 1777886713 | 17.22° C | 52% | 980.3 hPa | - | - | - | - |
| 1777884913 | 17.22° C | 52% | 980.4 hPa | - | - | - | - |
| 1777883113 | 17.78° C | 52% | 980.5 hPa | - | - | - | - |
| 1777881313 | 17.78° C | 52% | 980.1 hPa | - | - | - | - |
| 1777879513 | 17.78° C | 51% | 980.6 hPa | - | - | - | - |
| 1777877713 | 17.78° C | 51% | 980.9 hPa | - | - | - | - |
| 1777875913 | 17.78° C | 51% | 981.2 hPa | - | - | - | - |
| 1777874113 | 17.78° C | 50% | 981.1 hPa | - | - | - | - |
| 1777872313 | 17.78° C | 50% | 981.4 hPa | - | - | - | - |
| 1777870512 | 18.33° C | 49% | 981.8 hPa | - | - | - | - |
| 1777868713 | 18.33° C | 49% | 982.3 hPa | - | - | - | - |
| 1777866913 | 18.33° C | 49% | 982.2 hPa | - | - | - | - |
* Rain since midnight (hover to see other rain measurements)
** Current wind speed in m/s (hover to see current wind gust speed)